Location: Charlottesville
(38.0290°N, 78.4770°W)
Time: 13:21:35
(UTC-04:00)

ISS - Pass Details

Date: 14 October 2017
Orbit: 400 x 408 km, 51.6° (Epoch: 24 October)

Event Time Altitude Azimuth Distance (km) Brightness Sun altitude
Rises 21:02:59 0° 290° (WNW) 2,324 1.2 -29.4°
Reaches altitude 10° 21:05:53 10° 262° (W) 1,461 -0.2 -29.9°
Enters shadow 21:06:20 11° 255° (WSW) 1,377 -0.5 -30.0°
